TimeCDT,TemperatureF,Dew PointF,Humidity,Sea Level PressureIn,VisibilityMPH,Wind Direction,Wind SpeedMPH,Gust SpeedMPH,PrecipitationIn,Events,Conditions,WindDirDegrees,DateUTC
12:53 AM,68.0,66.0,93,29.85,10.0,ESE,4.6,-,N/A,,Scattered Clouds,110,2013-06-24 05:53:00
1:07 AM,68.0,66.2,94,29.87,10.0,ESE,4.6,-,N/A,,Mostly Cloudy,110,2013-06-24 06:07:00
1:53 AM,69.1,66.0,90,29.82,10.0,ESE,6.9,-,N/A,,Mostly Cloudy,110,2013-06-24 06:53:00
2:53 AM,70.0,66.0,87,29.81,10.0,SE,8.1,-,N/A,,Overcast,130,2013-06-24 07:53:00
3:32 AM,69.8,64.4,83,29.84,10.0,ESE,8.1,-,N/A,,Scattered Clouds,120,2013-06-24 08:32:00
3:53 AM,69.1,66.0,90,29.81,10.0,ESE,5.8,-,N/A,,Clear,110,2013-06-24 08:53:00
4:28 AM,69.8,66.2,88,29.91,10.0,SW,9.2,-,N/A,Thunderstorm,Mostly Cloudy,220,2013-06-24 09:28:00
4:49 AM,66.2,60.8,83,29.90,2.0,West,20.7,31.1,0.21,Rain-Thunderstorm,Heavy Thunderstorms and Rain,270,2013-06-24 09:49:00
4:53 AM,66.0,60.1,81,29.87,3.0,West,17.3,31.1,0.22,Rain-Thunderstorm,Heavy Thunderstorms and Rain,270,2013-06-24 09:53:00
5:22 AM,64.4,60.8,88,29.88,10.0,NW,9.2,-,0.00,Rain,Light Rain,320,2013-06-24 10:22:00
5:53 AM,64.9,59.0,81,29.80,10.0,NNW,12.7,20.7,0.01,Rain,Light Rain,340,2013-06-24 10:53:00
6:53 AM,64.9,59.0,81,29.75,10.0,South,8.1,-,0.01,,Clear,190,2013-06-24 11:53:00
7:53 AM,64.9,60.1,84,29.68,10.0,East,17.3,25.3,N/A,,Clear,100,2013-06-24 12:53:00
8:53 AM,64.9,60.1,84,29.73,10.0,South,11.5,21.9,N/A,,Clear,190,2013-06-24 13:53:00
9:53 AM,66.9,62.1,84,29.80,10.0,NW,8.1,-,N/A,,Partly Cloudy,320,2013-06-24 14:53:00
10:18 AM,69.8,62.6,78,29.82,10.0,NW,5.8,-,N/A,,Mostly Cloudy,320,2013-06-24 15:18:00
10:53 AM,72.0,63.0,73,29.79,10.0,NNW,4.6,-,N/A,,Mostly Cloudy,340,2013-06-24 15:53:00
11:53 AM,73.9,66.0,76,29.79,10.0,ESE,8.1,-,N/A,,Overcast,120,2013-06-24 16:53:00
12:53 PM,75.0,68.0,79,29.78,10.0,SSE,9.2,-,N/A,,Overcast,160,2013-06-24 17:53:00
1:53 PM,78.1,69.1,74,29.75,10.0,South,9.2,-,N/A,,Overcast,190,2013-06-24 18:53:00
2:53 PM,82.0,70.0,67,29.73,10.0,South,13.8,17.3,N/A,,Mostly Cloudy,170,2013-06-24 19:53:00
3:10 PM,82.4,69.8,66,29.75,10.0,South,10.4,-,N/A,,Mostly Cloudy,190,2013-06-24 20:10:00
3:53 PM,82.9,70.0,65,29.71,10.0,SSW,11.5,-,N/A,,Clear,200,2013-06-24 20:53:00
4:53 PM,84.0,70.0,63,29.71,10.0,South,10.4,-,N/A,,Partly Cloudy,170,2013-06-24 21:53:00
5:53 PM,84.0,70.0,63,29.69,10.0,SSE,10.4,-,N/A,,Clear,160,2013-06-24 22:53:00
6:53 PM,82.9,71.1,67,29.68,10.0,SE,8.1,-,N/A,,Clear,130,2013-06-24 23:53:00
7:53 PM,81.0,71.1,72,29.68,10.0,SE,8.1,-,N/A,,Clear,130,2013-06-25 00:53:00
8:53 PM,79.0,70.0,74,29.68,10.0,ESE,6.9,-,N/A,,Clear,120,2013-06-25 01:53:00
9:53 PM,77.0,70.0,79,29.68,10.0,ESE,6.9,-,N/A,,Scattered Clouds,120,2013-06-25 02:53:00
10:02 PM,77.0,69.8,78,29.71,10.0,ESE,9.2,-,N/A,Thunderstorm,Partly Cloudy,120,2013-06-25 03:02:00
10:24 PM,77.0,69.8,78,29.71,10.0,ESE,10.4,-,N/A,,Partly Cloudy,120,2013-06-25 03:24:00
10:53 PM,75.9,69.1,79,29.66,10.0,ESE,5.8,-,N/A,,Clear,110,2013-06-25 03:53:00
11:53 PM,73.9,66.9,79,29.66,10.0,East,11.5,-,N/A,,Clear,100,2013-06-25 04:53:00